Date,TemperatureHighF,TemperatureAvgF,TemperatureLowF,DewpointHighF,DewpointAvgF,DewpointLowF,HumidityHigh,HumidityAvg,HumidityLow,PressureMaxIn,PressureMinIn,WindSpeedMaxMPH,WindSpeedAvgMPH,GustSpeedMaxMPH,PrecipitationSumIn
2013-11-1,88,74,51,43,41,38,71,35,20,30.01,29.85,16,2,18,0.00
2013-11-2,86,65,48,46,40,34,72,43,21,29.90,29.76,8,0,18,0.00
2013-11-3,73,56,41,57,47,37,90,73,49,29.84,29.73,5,0,12,0.00
2013-11-4,71,59,46,55,50,42,91,74,47,29.87,29.70,7,0,12,0.00
2013-11-5,76,60,41,42,32,23,89,42,19,30.07,29.88,16,2,20,0.00
2013-11-6,85,69,53,36,30,23,35,24,17,30.11,30.02,13,1,19,0.00
2013-11-7,88,68,51,43,35,27,52,32,17,30.03,29.90,7,0,14,0.00
2013-11-8,83,59,43,55,40,30,77,52,21,29.94,29.83,5,0,10,0.00
2013-11-9,80,58,44,57,45,36,88,65,28,29.99,29.89,4,0,7,0.00
2013-11-10,86,57,42,51,40,32,88,58,17,30.04,29.93,7,0,16,0.00
2013-11-11,80,59,41,52,42,35,82,59,23,30.05,29.94,9,0,11,0.00
2013-11-12,81,61,48,59,47,40,83,61,31,30.08,29.98,1,0,6,0.00
2013-11-13,94,71,50,49,42,39,66,39,17,30.00,29.81,14,1,18,0.00
2013-11-14,93,70,54,54,45,36,85,46,18,29.85,29.65,6,0,11,0.00
2013-11-15,72,56,44,56,49,40,90,78,54,29.68,29.57,11,0,13,0.00
2013-11-16,70,58,52,56,53,46,93,83,56,29.84,29.64,7,0,12,0.00
2013-11-17,71,58,47,54,50,43,95,77,47,30.01,29.84,6,0,11,0.00
2013-11-18,69,54,42,54,48,40,93,79,57,30.07,29.96,5,0,8,0.00
2013-11-19,68,56,48,55,50,46,93,82,58,30.01,29.85,2,0,8,0.00
2013-11-20,66,58,51,56,53,47,93,83,64,29.88,29.77,2,0,5,0.00
2013-11-21,67,58,53,60,55,46,97,89,71,29.81,29.72,6,0,11,0.01
2013-11-22,65,57,53,45,41,39,70,57,47,29.91,29.78,19,2,20,0.00
2013-11-23,67,57,52,44,42,40,64,57,42,30.02,29.89,11,1,18,0.00
2013-11-24,70,57,45,48,42,40,82,59,35,30.12,30.00,12,1,17,0.00
2013-11-25,79,55,40,49,42,37,90,65,27,30.15,30.04,6,0,13,0.00
2013-11-26,79,63,46,44,40,38,79,47,24,30.09,29.95,10,1,17,0.00
2013-11-27,76,62,49,45,42,36,77,49,30,29.96,29.77,10,0,17,0.00
2013-11-28,70,58,48,48,44,40,80,61,35,29.96,29.80,8,0,10,0.00
2013-11-29,72,60,52,50,46,42,84,60,41,30.09,29.95,13,1,20,0.03
2013-11-30,79,61,48,45,41,38,77,51,27,30.10,29.97,14,1,16,0.00